Weather in Bolshelug

Russia / Komi Republic     62°07′54″N   52°30′19″E
temp.,
°C
wind,
m/s
gust,
m/s
humid.,
%
clouds,
%
prec.,
mm/h
press.,
hPa
HPBL,
m
8 march, mon
mon800:00−20e229998 0.1 100524
03:00−21ene239999 0.1 100471
06:00−22ene2699100 0.1 1004148
09:00−19ene3595100 0.1 1004254
12:00−15ne3689100 0.0 1003440
15:00−15ne4788100 0.0 1004620
18:00−19nne3994100 0.0 1005344
21:00−22nne399695 0.0 1007269
9 march, tue
tue900:00−25nne389672 0.0 1008256
03:00−29n389537 0.0 1011249
06:00−31n37955 0.0 1012231
09:00−29n37929 0.0 1014332
12:00−24n358944 0.0 1016469
15:00−22n368854 0.0 1017511
18:00−27nnw239669 0.0 101824
21:00−29nnw229634 0.0 101919
10 march, wed
wed1000:00−30nw12970 0.0 102019
03:00−30wnw22990 0.0 102019
06:00−30w239818 0.0 101929
09:00−24w259450 0.0 1018261
12:00−18w369197 0.0 1016412
15:00−18w379096 0.0 1016489
18:00−18w31095100 0.1 1014548
21:00−16w3896100 0.3 1013333
11 march, thu
thu1100:00−15wsw3796100 0.3 1011260
03:00−9nw41291100 0.6 1010864
06:00−9nw51288100 0.1 1011727
09:00−9nw51279100 0.1 1012678
12:00−8wnw4108097 0.0 1013657
15:00−8wnw5108081 0.0 1014761
18:00−12w3138717 0.0 1015436
21:00−13w4128913 0.0 1016517
12 march, fri
fri1200:00−13w4129098 0.0 1016545
03:00−13w3118998 0.0 1017567
06:00−13w31187100 0.0 1018492
09:00−11w41084100 0.0 1019552
12:00−8wsw4108391 0.0 1019652
15:00−8wsw598145 0.0 1018695
18:00−12sw4128816 0.0 1019441
21:00−13sw4129130 0.0 1019409